• In Deutschland
  • Länderverzeichnis
  • Für 7 Tage
  • Wassertemperatur
  • Satellitenkarten
  • Wetterkarte
  • Widgets
  • user-avatar
    Anmelden

    Stündliche Wetter Shandong

    Heute, 25 Februar, Sonntag

    Zeit Temperatur Niederschläge Wind Luftdruck Luftfeuchtigkeit
    00:00 0°C° 0 mm 1 m/S 769 mmHg 51%
    01:00 -1°C° 0 mm 1 m/S 769 mmHg 52%
    02:00 -1°C° 0 mm 1 m/S 769 mmHg 54%
    03:00 -1°C° 0 mm 1 m/S 769 mmHg 56%
    04:00 -1°C° 0 mm 1 m/S 768 mmHg 57%
    05:00 -1°C° 0 mm 1 m/S 768 mmHg 59%
    06:00 0°C° 0 mm 1 m/S 768 mmHg 58%
    07:00 0°C° 0 mm 1 m/S 768 mmHg 57%
    08:00 -1°C° 0 mm 2 m/S 768 mmHg 54%
    09:00 +2°C° 0 mm 2 m/S 767 mmHg 50%
    10:00 +3°C° 0 mm 3 m/S 767 mmHg 46%
    11:00 +5°C° 0 mm 3 m/S 767 mmHg 42%
    12:00 +7°C° 0 mm 4 m/S 766 mmHg 39%
    13:00 +8°C° 0 mm 4 m/S 765 mmHg 36%
    14:00 +10°C° 0 mm 3 m/S 764 mmHg 33%
    15:00 +10°C° 0 mm 3 m/S 764 mmHg 33%
    16:00 +11°C° 0 mm 3 m/S 764 mmHg 34%
    17:00 +11°C° 0 mm 4 m/S 763 mmHg 35%
    18:00 +9°C° 0 mm 3 m/S 763 mmHg 40%
    19:00 +8°C° 0 mm 3 m/S 763 mmHg 45%
    20:00 +7°C° 0 mm 2 m/S 763 mmHg 49%
    21:00 +5°C° 0 mm 3 m/S 763 mmHg 51%
    22:00 +5°C° 0 mm 3 m/S 763 mmHg 52%
    23:00 +5°C° 0 mm 4 m/S 763 mmHg 54%

    Morgen, 26 Februar, Montag

    Zeit Temperatur Niederschläge Wind Luftdruck Luftfeuchtigkeit
    00:00 +5°C° 0 mm 4 m/S 762 mmHg 56%
    01:00 +4°C° 0 mm 4 m/S 762 mmHg 58%
    02:00 +3°C° 0 mm 5 m/S 762 mmHg 60%
    03:00 +3°C° 0 mm 5 m/S 762 mmHg 63%
    04:00 +3°C° 0 mm 5 m/S 762 mmHg 65%
    05:00 +3°C° 0 mm 5 m/S 761 mmHg 68%
    06:00 +3°C° 0 mm 6 m/S 761 mmHg 69%
    07:00 +3°C° 0 mm 6 m/S 761 mmHg 69%
    08:00 +4°C° 0 mm 6 m/S 761 mmHg 70%
    09:00 +6°C° 0 mm 7 m/S 761 mmHg 64%
    10:00 +9°C° 0 mm 7 m/S 761 mmHg 57%
    11:00 +11°C° 0 mm 7 m/S 761 mmHg 50%
    12:00 +14°C° 0 mm 7 m/S 761 mmHg 47%
    13:00 +15°C° 0 mm 6 m/S 760 mmHg 44%
    14:00 +16°C° 0 mm 6 m/S 760 mmHg 40%
    15:00 +16°C° 0 mm 5 m/S 759 mmHg 40%
    16:00 +17°C° 0 mm 4 m/S 759 mmHg 39%
    17:00 +17°C° 0 mm 3 m/S 759 mmHg 39%
    18:00 +16°C° 0 mm 3 m/S 759 mmHg 44%
    19:00 +14°C° 0 mm 2 m/S 759 mmHg 49%
    20:00 +13°C° 0 mm 2 m/S 760 mmHg 54%
    21:00 +12°C° 0 mm 2 m/S 760 mmHg 56%
    22:00 +12°C° 0 mm 2 m/S 760 mmHg 59%
    23:00 +10°C° 0 mm 2 m/S 760 mmHg 61%

    übermorgen, 27 Februar, Dienstag

    Zeit Temperatur Niederschläge Wind Luftdruck Luftfeuchtigkeit
    00:00 +10°C° 0 mm 2 m/S 760 mmHg 63%
    01:00 +11°C° 0 mm 1 m/S 760 mmHg 65%
    02:00 +10°C° 0 mm 1 m/S 760 mmHg 67%
    03:00 +10°C° 0 mm 1 m/S 760 mmHg 68%
    04:00 +10°C° 0 mm 1 m/S 760 mmHg 69%
    05:00 +10°C° 0 mm 1 m/S 761 mmHg 71%
    06:00 +9°C° 0 mm 2 m/S 761 mmHg 69%
    07:00 +9°C° 0 mm 3 m/S 761 mmHg 68%
    08:00 +9°C° 0 mm 3 m/S 761 mmHg 66%
    09:00 +11°C° 0 mm 3 m/S 761 mmHg 60%
    10:00 +12°C° 0 mm 4 m/S 761 mmHg 53%
    11:00 +13°C° 0 mm 4 m/S 761 mmHg 47%
    12:00 +14°C° 0 mm 4 m/S 761 mmHg 46%
    13:00 +14°C° 0 mm 5 m/S 760 mmHg 45%
    14:00 +15°C° 0 mm 5 m/S 760 mmHg 44%
    15:00 +14°C° 0,1 mm 5 m/S 760 mmHg 46%
    16:00 +13°C° 0,1 mm 5 m/S 759 mmHg 49%
    17:00 +12°C° 0,1 mm 5 m/S 759 mmHg 51%
    18:00 +11°C° 0,1 mm 4 m/S 759 mmHg 56%
    19:00 +10°C° 0,1 mm 4 m/S 759 mmHg 60%
    20:00 +7°C° 0,1 mm 4 m/S 759 mmHg 64%
    21:00 +8°C° 0,5 mm 3 m/S 759 mmHg 68%
    22:00 +7°C° 0,5 mm 3 m/S 759 mmHg 72%
    23:00 +7°C° 0,5 mm 3 m/S 759 mmHg 76%

    28 Februar, Mittwoch

    Zeit Temperatur Niederschläge Wind Luftdruck Luftfeuchtigkeit
    00:00 +6°C° 0,4 mm 2 m/S 759 mmHg 78%
    01:00 +6°C° 0,4 mm 2 m/S 758 mmHg 80%
    02:00 +5°C° 0,4 mm 2 m/S 758 mmHg 82%
    03:00 +5°C° 0,2 mm 2 m/S 758 mmHg 83%
    04:00 +5°C° 0,2 mm 2 m/S 757 mmHg 84%
    05:00 +6°C° 0,2 mm 1 m/S 757 mmHg 85%
    06:00 +6°C° 0 mm 1 m/S 757 mmHg 84%
    07:00 +6°C° 0 mm 1 m/S 757 mmHg 84%
    08:00 +6°C° 0 mm 1 m/S 757 mmHg 83%
    09:00 +6°C° 0 mm 2 m/S 757 mmHg 75%
    10:00 +8°C° 0 mm 2 m/S 756 mmHg 67%
    11:00 +10°C° 0 mm 2 m/S 756 mmHg 60%
    12:00 +11°C° 0 mm 3 m/S 755 mmHg 53%
    13:00 +13°C° 0 mm 4 m/S 754 mmHg 46%
    14:00 +14°C° 0 mm 5 m/S 753 mmHg 39%
    15:00 +15°C° 0 mm 5 m/S 753 mmHg 38%
    16:00 +15°C° 0 mm 5 m/S 752 mmHg 37%
    17:00 +15°C° 0 mm 5 m/S 752 mmHg 36%
    18:00 +14°C° 0 mm 4 m/S 753 mmHg 40%
    19:00 +13°C° 0 mm 3 m/S 753 mmHg 44%
    20:00 +12°C° 0 mm 3 m/S 754 mmHg 47%
    21:00 +11°C° 0 mm 4 m/S 755 mmHg 45%
    22:00 +9°C° 0 mm 5 m/S 756 mmHg 43%
    23:00 +9°C° 0 mm 7 m/S 757 mmHg 41%

    1 März, Donnerstag

    Zeit Temperatur Niederschläge Wind Luftdruck Luftfeuchtigkeit
    00:00 +6°C° 0 mm 7 m/S 758 mmHg 35%
    01:00 +5°C° 0 mm 6 m/S 759 mmHg 30%
    02:00 +4°C° 0 mm 6 m/S 760 mmHg 24%
    03:00 +3°C° 0 mm 6 m/S 760 mmHg 26%
    04:00 +3°C° 0 mm 6 m/S 761 mmHg 28%
    05:00 +2°C° 0 mm 6 m/S 761 mmHg 29%
    06:00 +2°C° 0 mm 6 m/S 762 mmHg 28%
    07:00 +2°C° 0 mm 6 m/S 763 mmHg 28%
    08:00 +2°C° 0 mm 6 m/S 763 mmHg 27%
    09:00 +3°C° 0 mm 6 m/S 764 mmHg 25%
    10:00 +5°C° 0 mm 5 m/S 764 mmHg 23%
    11:00 +6°C° 0 mm 5 m/S 764 mmHg 21%
    12:00 +6°C° 0 mm 4 m/S 764 mmHg 19%
    13:00 +7°C° 0 mm 4 m/S 763 mmHg 18%
    14:00 +9°C° 0 mm 3 m/S 762 mmHg 16%
    15:00 +9°C° 0 mm 3 m/S 762 mmHg 16%
    16:00 +9°C° 0 mm 3 m/S 761 mmHg 16%
    17:00 +9°C° 0 mm 2 m/S 761 mmHg 16%
    18:00 +8°C° 0 mm 3 m/S 761 mmHg 19%
    19:00 +7°C° 0 mm 3 m/S 761 mmHg 21%
    20:00 +5°C° 0 mm 3 m/S 761 mmHg 23%
    21:00 +5°C° 0 mm 3 m/S 761 mmHg 26%
    22:00 +4°C° 0 mm 3 m/S 761 mmHg 29%
    23:00 +4°C° 0 mm 4 m/S 761 mmHg 31%

    2 März, Freitag

    Zeit Temperatur Niederschläge Wind Luftdruck Luftfeuchtigkeit
    00:00 +4°C° 0 mm 4 m/S 760 mmHg 36%
    01:00 +2°C° 0 mm 5 m/S 760 mmHg 40%
    02:00 +2°C° 0 mm 5 m/S 759 mmHg 45%
    03:00 +1°C° 0 mm 5 m/S 759 mmHg 46%
    04:00 +1°C° 0 mm 5 m/S 758 mmHg 46%
    05:00 +1°C° 0 mm 5 m/S 758 mmHg 47%
    06:00 +1°C° 0 mm 6 m/S 758 mmHg 47%
    07:00 +1°C° 0 mm 6 m/S 758 mmHg 46%
    08:00 +2°C° 0 mm 6 m/S 758 mmHg 46%
    09:00 +3°C° 0 mm 7 m/S 757 mmHg 48%
    10:00 +5°C° 0 mm 7 m/S 757 mmHg 49%
    11:00 +8°C° 0 mm 7 m/S 757 mmHg 50%
    12:00 +10°C° 0 mm 7 m/S 756 mmHg 50%
    13:00 +11°C° 0 mm 7 m/S 755 mmHg 49%
    14:00 +12°C° 0 mm 8 m/S 754 mmHg 48%
    15:00 +12°C° 0 mm 7 m/S 754 mmHg 49%
    16:00 +12°C° 0 mm 7 m/S 753 mmHg 50%
    17:00 +13°C° 0 mm 6 m/S 753 mmHg 51%
    18:00 +11°C° 0 mm 6 m/S 753 mmHg 55%
    19:00 +10°C° 0 mm 5 m/S 753 mmHg 59%
    20:00 +9°C° 0 mm 5 m/S 754 mmHg 64%
    21:00 +9°C° 0 mm 5 m/S 754 mmHg 68%
    22:00 +8°C° 0 mm 5 m/S 754 mmHg 72%
    23:00 +8°C° 0 mm 6 m/S 754 mmHg 77%
    Mehr zeigen